Regional Weather Roundup
Issued by NWS

Home | Current Version | Previous Version | Graphics & Text | Print | Product List | Glossary On
Versions: 1 2 3 4 5 6 7 8 9 10 11 12 13 14 15 16 17 18 19 20 21 22 23 24 25 26 27 28 29 30 31 32 33 34 35 36 37 38 39 40 41 42 43 44 45 46 47 48 49 50
000
ASUS45 KPSR 212300
RWRAZ

PRELIMINARY ARIZONA REGIONAL HOURLY WEATHER ROUNDUP
NATIONAL WEATHER SERVICE PHOENIX AZ
400 PM MST THU AUG 21 2014

NOTE: FAIR INDICATES FEW OR NO CLOUDS BELOW 12,000 FEET WITH NO
SIGNIFICANT WEATHER AND/OR OBSTRUCTIONS TO VISIBILITY.

AZZ001>003-036-220000-
NORTHWEST ARIZONA

CITY           SKY/WX    TMP DP  RH WIND       PRES   REMARKS
KINGMAN        CLOUDY    70  58  65 NW5       30.07F
$$

AZZ004>008-015-016-018-220000-
NORTH CENTRAL ARIZONA

CITY           SKY/WX    TMP DP  RH WIND       PRES   REMARKS
GRAND CANYON   CLOUDY    55  52  89 W6        30.27F
WILLIAMS         N/A     54  52  94 CALM      30.35F
PRESCOTT       PTSUNNY   70  52  52 E7        30.15F
FLAGSTAFF      RAIN      54  51  90 NW7       30.29F FOG
PAYSON         CLOUDY    73  55  53 W12       30.17S
PAGE           PTSUNNY   84  43  23 NW3       30.05F
$$

AZZ009>014-017-220000-
NORTHEAST ARIZONA

CITY           SKY/WX    TMP DP  RH WIND       PRES   REMARKS
WINSLOW        NOT AVBL
SAINT JOHNS    LGT RAIN  70  53  54 W16       30.16R
WINDOW ROCK    CLOUDY    73  42  32 W16G25    30.22F
$$

AZZ023-220000-
GREATER PHOENIX AREA

CITY           SKY/WX    TMP DP  RH WIND       PRES   REMARKS
PHOENIX        PTSUNNY   87  59  38 E3        29.88F
GLENDALE       PTSUNNY   88  61  40 NE5       29.90F
DEER VALLEY    PTSUNNY   84  58  40 CALM      29.90F
SCOTTSDALE     CLOUDY    86  60  41 SW3       29.92F
MESA-GATEWAY   PTSUNNY   86  52  30 NW3       29.93F
CHANDLER       PTSUNNY   88  57  35 VRB5      29.91F
$$

AZZ027-028-220000-
SOUTHWEST MARICOPA COUNTY AND PINAL COUNTY

CITY           SKY/WX    TMP DP  RH WIND       PRES   REMARKS
CASA GRANDE    CLOUDY    86  55  35 CALM      29.92F
$$

AZZ503-504-507>509-220000-
SOUTHEAST ARIZONA

CITY           SKY/WX    TMP DP  RH WIND       PRES   REMARKS
TUCSON         CLOUDY    80  58  46 W12       30.02S
DAVIS-MONTHAN  DRIZZLE   79  61  53 W7        30.01S
RYAN FIELD       N/A     73  68  83 E9        30.02R FOG
NOGALES        PTSUNNY   79  58  48 NE3       30.07F
SIERRA VISTA   PTSUNNY   70  63  78 W12       30.13F
SAFFORD        CLOUDY    84  56  38 NW20G26   29.97F
$$

AZZ020-021-025-026-031-220000-
SOUTHWEST ARIZONA

CITY           SKY/WX    TMP DP  RH WIND       PRES   REMARKS
YUMA           TSTM      78  65  63 NW25      29.84R
$$

CAZ031-033-041-043-047-048-061-220000-
SOUTHERN CALIFORNIA

CITY           SKY/WX    TMP DP  RH WIND       PRES   REMARKS
DOWNTOWN L.A.  SUNNY     77  62  59 VRB3      29.89F
L.A. AIRPORT   MOSUNNY   74  61  63 W14       29.91F
SAN DIEGO      MOSUNNY   76  63  64 NW13      29.91S
BURBANK        SUNNY     84  58  40 S9        29.89F
ONTARIO        MOSUNNY   91  58  32 W14       29.87F
RIVERSIDE      SUNNY     90  61  37 W9G20     29.86F
PALM SPRINGS   MOSUNNY   99  45  15 E9        29.82F
EL CENTRO NAS  TSTM      74  64  71 E17       29.85S
IMPERIAL       TSTM      75  63  66 E15       29.86S
BLYTHE         TSTM      75  66  73 SW47G56   29.92R SQUALL  VSB 1/4
$$

NVZ020-UTZ003-220000-
SOUTHERN NEVADA-UTAH

CITY           SKY/WX    TMP DP  RH WIND       PRES   REMARKS
LAS VEGAS      NOT AVBL
SALT LAKE CITY PTSUNNY   79  43  27 S9        30.02F
$$

NMZ009-TXZ055-220000-
NEW MEXICO-WEST TEXAS

CITY           SKY/WX    TMP DP  RH WIND       PRES   REMARKS
ALBUQUERQUE    PTSUNNY   88  29  12 S12       30.09F
EL PASO        MOSUNNY   92  50  23 SW5       29.99F
$$


........................KEY........................
SKY/WX - SKY CONDITION/WEATHER
TMP    - TEMPERATURE IN FAHRENHEIT
DP     - DEW POINT IN FAHRENHEIT
RH     - RELATIVE HUMIDITY IN PERCENT
WIND   - DIRECTION AND SPEED IN MILES PER HOUR (MPH)
VRB    - VARIABLE WIND DIRECTION
PRES   - MEAN SEA LEVEL PRESSURE IN INCHES OF MERCURY
         F - FALLING PRESSURE   R - RISING PRESSURE
         S - STEADY PRESSURE
VSB    - VISIBILITY IN MILES
HX     - HEAT INDEX IN FAHRENHEIT
WCI    - WIND CHILL INDEX IN FAHRENHEIT
TC     - TEMPERATURE IN CELSIUS WHICH IS ALSO KNOWN AS
         TEMPERATURE IN CENTIGRADE
AFB    - AIR FORCE BASE
         LUKE AFB IS LUKE AIR FORCE BASE
         DAVIS-MONTHAN IS DAVIS-MONTHAN AIR FORCE BASE
NAS    - NAVAL AIR STATION
         EL CENTRO NAS IS EL CENTRO NAVAL AIR STATION
N/A    - NOT AVAILABLE



USA.gov is the U.S. government's official web portal to all federal, state and local government web resources and services.